Stoneville, NC

5:37 PM EDT on August 26, 2016 (GMT -0400)
Reidsville

Weather History for KSIF - January, 2014

Change the Weather History Date:

Thursday, January 23, 2014

  Actual Average (KGSO) Record (KGSO)
Temperature  
Mean Temperature 22 °F 39 °F  
Max Temperature 34 °F 49 °F 73 °F (1967)
Min Temperature 11 °F 30 °F 6 °F (1936)
Degree Days  
Heating Degree Days 42 26  
Month to date heating degree days 598  
Since 1 July heating degree days 2012  
Cooling Degree Days 0 0  
Month to date cooling degree days 0  
Year to date cooling degree days 0  
Moisture  
Dew Point 8 °F    
Average Humidity 57    
Maximum Humidity 90    
Minimum Humidity 32    
Precipitation  
Precipitation 0.00 in 0.10 in 1.23 in (2002)
Month to date precipitation 2.30  
Year to date precipitation 2.30  
Snow  
Snow 0.00 in 0.10 in 4.00 in (1940)
Month to date snowfall 2.5  
Since 1 July snowfall 3.4  
Snow Depth -    
Sea Level Pressure  
Sea Level Pressure 30.24 in    
Wind  
Wind Speed 3 mph (WNW)    
Max Wind Speed 12 mph    
Max Gust Speed 21 mph    
Visibility 10 miles    
Events      
T = Trace of Precipitation, MM = Missing Value Source: NWS Daily Summary

Daily Weather History Graph

Daily Weather History Graph

Search for Another Location

Airport or City:

Trip Planner

Search our weather history database for the weather conditions in past years. The results will help you decide how hot, cold, wet, or windy it might be!

Date:

Astronomy

Jan. 23, 2014 Rise Set
Actual Time 7:26 AM EST 5:35 PM EST
Civil Twilight 6:59 AM EST 6:03 PM EST
Nautical Twilight 6:28 AM EST 6:34 PM EST
Astronomical Twilight 5:57 AM EST 7:05 PM EST
Moon No Moon Rise 11:14 AM EST (1/23)
Length of Visible Light 11h 04m
Length of Day
10h 09m
Waning Gibbous, 55% of the Moon is Illuminated
Jan 23
Waning Gibbous
Jan 24
Last Quarter
Jan 30
New
Feb 6
First Quarter
Feb 14
Full

Hourly Weather History & Observations

Time (EST) Temp. Windchill Dew Point Humidity Pressure Visibility Wind Dir Wind Speed Gust Speed Precip Events Conditions
12:15 AM 19.9 °F - 12.7 °F 74% 30.08 in 10.0 mi Calm Calm - N/A   Overcast
12:35 AM 19.4 °F - 14.4 °F 81% 30.08 in 10.0 mi Calm Calm - N/A   Overcast
12:55 AM 19.8 °F - 13.8 °F 78% 30.08 in 10.0 mi Calm Calm - N/A   Overcast
1:15 AM 19.4 °F - 12.9 °F 76% 30.09 in 10.0 mi Calm Calm - N/A   Overcast
1:35 AM 19.9 °F - 12.0 °F 71% 30.10 in 10.0 mi Calm Calm - N/A   Overcast
1:55 AM 17.2 °F - 12.2 °F 81% 30.11 in 10.0 mi Calm Calm - N/A   Overcast
2:15 AM 16.3 °F - 11.8 °F 82% 30.11 in 10.0 mi Calm Calm - N/A   Mostly Cloudy
2:35 AM 14.4 °F - 10.8 °F 86% 30.11 in 10.0 mi Calm Calm - N/A   Scattered Clouds
2:55 AM 14.7 °F - 9.0 °F 78% 30.12 in 10.0 mi Calm Calm - N/A   Clear
3:15 AM 12.2 °F - 8.4 °F 85% 30.13 in 10.0 mi Calm Calm - N/A   Clear
3:35 AM 12.0 °F - 7.7 °F 83% 30.14 in 10.0 mi Calm Calm - N/A   Clear
3:55 AM 12.7 °F 6.7 °F 8.4 °F 83% 30.14 in 10.0 mi South 3.5 mph - N/A   Clear
4:15 AM 11.3 °F - 7.5 °F 85% 30.14 in 10.0 mi Calm Calm - N/A   Clear
4:35 AM 13.3 °F 7.3 °F 9.0 °F 83% 30.14 in 10.0 mi WNW 3.5 mph - N/A   Clear
4:55 AM 14.9 °F - 9.7 °F 80% 30.14 in 10.0 mi Calm Calm - N/A   Clear
5:15 AM 13.5 °F - 9.5 °F 84% 30.16 in 10.0 mi Calm Calm - N/A   Clear
5:35 AM 14.7 °F - 10.2 °F 82% 30.16 in 10.0 mi Calm Calm - N/A   Clear
5:55 AM 12.2 °F - 8.6 °F 85% 30.16 in 10.0 mi Calm Calm - N/A   Clear
6:15 AM 13.5 °F - 9.7 °F 85% 30.18 in 10.0 mi Calm Calm - N/A   Clear
6:35 AM 14.2 °F - 10.2 °F 84% 30.18 in 10.0 mi Calm Calm - N/A   Clear
6:55 AM 11.3 °F - 8.2 °F 87% 30.18 in 10.0 mi Calm Calm - N/A   Clear
7:15 AM 11.8 °F - 9.3 °F 90% 30.18 in 10.0 mi Calm Calm - N/A   Clear
7:35 AM 15.6 °F - 11.3 °F 83% 30.19 in 10.0 mi Calm Calm - N/A   Clear
7:55 AM 15.3 °F - 10.2 °F 80% 30.21 in 10.0 mi Calm Calm - N/A   Clear
8:15 AM 18.3 °F - 10.9 °F 73% 30.21 in 10.0 mi Calm Calm - N/A   Clear
8:35 AM 18.5 °F - 11.3 °F 73% 30.21 in 10.0 mi Calm Calm - N/A   Clear
8:55 AM 19.4 °F 14.3 °F 11.1 °F 70% 30.22 in 10.0 mi SW 3.5 mph - N/A   Clear
9:15 AM 21.0 °F - 12.2 °F 69% 30.22 in 10.0 mi Calm Calm - N/A   Clear
9:35 AM 22.5 °F - 11.8 °F 64% 30.22 in 10.0 mi Calm Calm - N/A   Clear
9:55 AM 23.7 °F 19.3 °F 12.9 °F 63% 30.23 in 10.0 mi SW 3.5 mph - N/A   Clear
10:15 AM 25.0 °F 20.7 °F 13.6 °F 62% 30.25 in 10.0 mi WSW 3.5 mph - N/A   Clear
10:35 AM 26.4 °F 19.8 °F 12.9 °F 57% 30.26 in 10.0 mi WSW 5.8 mph - N/A   Clear
10:55 AM 27.3 °F 20.9 °F 12.6 °F 54% 30.26 in 10.0 mi SW 5.8 mph - N/A   Clear
11:15 AM 28.4 °F 19.7 °F 11.7 °F 50% 30.25 in 10.0 mi WSW 9.2 mph - N/A   Clear
11:35 AM 30.0 °F 21.1 °F 11.8 °F 47% 30.25 in 10.0 mi SW 10.4 mph - N/A   Clear
11:55 AM 29.7 °F 20.7 °F 12.0 °F 48% 30.25 in 10.0 mi WSW 10.4 mph - N/A   Scattered Clouds
12:15 PM 30.0 °F 20.5 °F 11.3 °F 46% 30.24 in 10.0 mi WSW 11.5 mph 17.3 mph N/A   Scattered Clouds
12:35 PM 30.7 °F 24.1 °F 11.5 °F 45% 30.23 in 10.0 mi West 6.9 mph 16.1 mph N/A   Scattered Clouds
12:55 PM 32.0 °F 24.8 °F 11.7 °F 43% 30.21 in 10.0 mi West 8.1 mph - N/A   Clear
1:15 PM 32.4 °F 25.3 °F 11.3 °F 42% 30.21 in 10.0 mi WSW 8.1 mph - N/A   Clear
1:35 PM 32.2 °F 24.4 °F 11.1 °F 42% 30.21 in 10.0 mi WSW 9.2 mph - N/A   Clear
1:55 PM 32.0 °F 26.4 °F 10.9 °F 42% 30.20 in 10.0 mi West 5.8 mph - N/A   Clear
2:15 PM 32.0 °F 27.5 °F 9.9 °F 40% 30.21 in 10.0 mi WSW 4.6 mph - N/A   Clear
2:35 PM 34.0 °F 31.0 °F 10.9 °F 38% 30.21 in 10.0 mi NW 3.5 mph - N/A   Scattered Clouds
2:55 PM 33.6 °F 26.8 °F 9.3 °F 36% 30.21 in 10.0 mi WSW 8.1 mph - N/A   Scattered Clouds
3:15 PM 34.7 °F 28.1 °F 9.5 °F 35% 30.21 in 10.0 mi WNW 8.1 mph - N/A   Clear
3:35 PM 34.7 °F 27.5 °F 9.3 °F 35% 30.21 in 10.0 mi West 9.2 mph 18.4 mph N/A   Clear
3:55 PM 33.6 °F 26.8 °F 8.4 °F 35% 30.22 in 10.0 mi WNW 8.1 mph 16.1 mph N/A   Clear
4:15 PM 33.8 °F 28.6 °F 7.2 °F 33% 30.24 in 10.0 mi WNW 5.8 mph 18.4 mph N/A   Clear
4:35 PM 32.9 °F 28.5 °F 6.6 °F 33% 30.25 in 10.0 mi North 4.6 mph - N/A   Clear
4:55 PM 32.7 °F 27.3 °F 5.9 °F 32% 30.26 in 10.0 mi NW 5.8 mph - N/A   Clear
5:15 PM 32.0 °F 26.4 °F 5.9 °F 33% 30.27 in 10.0 mi NNW 5.8 mph - N/A   Clear
5:35 PM 30.7 °F 22.6 °F 5.9 °F 35% 30.28 in 10.0 mi NNW 9.2 mph - N/A   Clear
5:55 PM 29.8 °F 26.3 °F 5.7 °F 36% 30.29 in 10.0 mi NNW 3.5 mph - N/A   Clear
6:15 PM 28.9 °F 21.9 °F 4.6 °F 36% 30.30 in 10.0 mi NW 6.9 mph - N/A   Clear
6:35 PM 28.2 °F 21.0 °F 3.2 °F 34% 30.32 in 10.0 mi NNW 6.9 mph - N/A   Clear
6:55 PM 27.3 °F 20.9 °F 1.6 °F 33% 30.33 in 10.0 mi North 5.8 mph - N/A   Clear
7:15 PM 26.4 °F 18.0 °F 2.7 °F 36% 30.35 in 10.0 mi North 8.1 mph - N/A   Clear
7:35 PM 25.0 °F 18.1 °F 3.4 °F 40% 30.36 in 10.0 mi North 5.8 mph - N/A   Clear
7:55 PM 23.9 °F 13.5 °F 3.2 °F 41% 30.37 in 10.0 mi North 10.4 mph - N/A   Clear
8:15 PM 23.0 °F 15.8 °F 3.0 °F 42% 30.38 in 10.0 mi North 5.8 mph 16.1 mph N/A   Clear
8:35 PM 22.3 °F 13.0 °F 2.5 °F 42% 30.39 in 10.0 mi North 8.1 mph - N/A   Clear
8:55 PM 21.9 °F 12.5 °F 2.5 °F 43% 30.39 in 10.0 mi North 8.1 mph - N/A   Clear
9:15 PM 20.7 °F 13.0 °F 1.9 °F 44% 30.40 in 10.0 mi North 5.8 mph - N/A   Clear
9:35 PM 19.9 °F 11.1 °F 1.2 °F 44% 30.41 in 10.0 mi North 6.9 mph - N/A   Clear
9:55 PM 19.2 °F 10.2 °F -0.2 °F 43% 30.42 in 10.0 mi North 6.9 mph 20.7 mph N/A   Clear
10:15 PM 18.5 °F 7.5 °F -1.3 °F 42% 30.43 in 10.0 mi North 9.2 mph 17.3 mph N/A   Clear
10:35 PM 18.0 °F 7.7 °F -0.6 °F 44% 30.44 in 10.0 mi North 8.1 mph - N/A   Clear
10:55 PM 17.1 °F 10.0 °F -1.1 °F 45% 30.45 in 10.0 mi North 4.6 mph - N/A   Clear
11:15 PM 16.5 °F 4.3 °F -2.2 °F 44% 30.46 in 10.0 mi NNW 10.4 mph 18.4 mph N/A   Clear
11:35 PM 15.8 °F 3.4 °F -3.1 °F 43% 30.46 in 10.0 mi North 10.4 mph 17.3 mph N/A   Clear
11:55 PM 15.4 °F 2.3 °F -3.1 °F 44% 30.46 in 10.0 mi North 11.5 mph 18.4 mph N/A   Clear